User: anonymous   Login
Location: Donald C. Martin Observatory
(38.3885°N, 82.3916°W)
Time: 08:50:00
(UTC-04:00)
Language:

Cosmos 1484 Rocket - Orbit

View from above orbital plane
View from above orbital plane
View from above satellite
View from above satellite

Ground track
Ground track

The orbit data is extracted from the following two-line orbital elements,

1 14208U 83075B   15245.08184297  .00001115  00000-0  72883-4 0  9994
2 14208  97.3804 270.7301 0039479 223.9597 135.8490 15.09182536748804
Epoch (UTC): 02 September 2015 01:57:51
Eccentricity: 0.0039479
inclination: 97.3804°
perigee height: 511 km
apogee height: 566 km
right ascension of ascending node: 270.7301°
argument of perigee: 223.9597°
revolutions per day: 15.09182536
mean anomaly at epoch: 135.8490°
orbit number at epoch: 74880

The dashed part of the orbit path shows where the satellite is in the earth's shadow,  

DLR